Time,TemperatureF,DewpointF,PressureIn,WindDirection,WindDirectionDegrees,WindSpeedMPH,WindSpeedGustMPH,Humidity,HourlyPrecipIn,Conditions,Clouds,dailyrainin,SoftwareType,DateUTC
2013-02-12 00:11:00,37.0,37.0,-100.00,South,185,0.0,2.0,99,-99.99,,,-99.99,,2013-02-12 05:11:00,
2013-02-12 00:21:00,37.0,37.0,-100.00,South,185,0.0,2.0,99,-99.99,,,-99.99,,2013-02-12 05:21:00,
2013-02-12 01:22:00,40.0,39.0,-100.00,ENE,65,2.0,5.0,99,-99.99,,,-99.99,,2013-02-12 06:22:00,
2013-02-12 01:32:00,40.0,39.0,-100.00,NNE,15,1.0,5.0,99,-99.99,,,-99.99,,2013-02-12 06:32:00,
2013-02-12 01:42:00,40.0,39.0,-100.00,ESE,105,1.0,7.0,99,-99.99,,,-99.99,,2013-02-12 06:42:00,
2013-02-12 01:52:00,39.0,39.0,-100.00,North,5,1.0,5.0,99,-99.99,,,-99.99,,2013-02-12 06:52:00,
2013-02-12 02:02:00,38.0,38.0,-100.00,East,80,1.0,3.0,99,-99.99,,,-99.99,,2013-02-12 07:02:00,
2013-02-12 02:12:00,38.0,38.0,-100.00,North,5,1.0,3.0,99,-99.99,,,-99.99,,2013-02-12 07:12:00,
2013-02-12 02:21:00,37.0,37.0,-100.00,NE,45,0.0,2.0,99,-99.99,,,-99.99,,2013-02-12 07:21:00,
2013-02-12 02:32:00,38.0,38.0,-100.00,ENE,70,3.0,8.0,99,-99.99,,,-99.99,,2013-02-12 07:32:00,
2013-02-12 02:42:00,38.0,37.0,-100.00,NE,55,3.0,15.0,98,-99.99,,,-99.99,,2013-02-12 07:42:00,
2013-02-12 02:51:00,38.0,36.0,-100.00,ENE,65,5.0,13.0,91,-99.99,,,-99.99,,2013-02-12 07:51:00,
2013-02-12 03:01:00,38.0,35.0,-100.00,ENE,60,6.0,10.0,90,-99.99,,,-99.99,,2013-02-12 08:01:00,
2013-02-12 03:11:00,38.0,35.0,-100.00,ENE,60,6.0,10.0,90,-99.99,,,-99.99,,2013-02-12 08:11:00,
2013-02-12 04:30:00,36.0,29.0,-100.00,ENE,65,5.0,12.0,73,-99.99,,,-99.99,,2013-02-12 09:30:00,
2013-02-12 04:32:00,37.0,29.0,-100.00,NE,35,6.0,14.0,74,-99.99,,,-99.99,,2013-02-12 09:32:00,
2013-02-12 04:42:00,37.0,29.0,-100.00,ENE,70,6.0,14.0,74,-99.99,,,-99.99,,2013-02-12 09:42:00,
2013-02-12 04:51:00,37.0,29.0,-100.00,North,10,5.0,16.0,73,-99.99,,,-99.99,,2013-02-12 09:51:00,
2013-02-12 05:00:00,36.0,28.0,-100.00,ENE,70,6.0,14.0,72,-99.99,,,-99.99,,2013-02-12 10:00:00,
2013-02-12 05:02:00,37.0,29.0,-100.00,North,10,5.0,16.0,73,-99.99,,,-99.99,,2013-02-12 10:02:00,
2013-02-12 05:11:00,36.0,29.0,-100.00,ENE,65,5.0,12.0,73,-99.99,,,-99.99,,2013-02-12 10:11:00,
2013-02-12 05:22:00,36.0,29.0,-100.00,ENE,65,5.0,12.0,73,-99.99,,,-99.99,,2013-02-12 10:22:00,
2013-02-12 05:43:00,36.0,28.0,-100.00,ENE,70,6.0,14.0,72,-99.99,,,-99.99,,2013-02-12 10:43:00,
2013-02-12 05:52:00,36.0,28.0,-100.00,ENE,70,6.0,14.0,72,-99.99,,,-99.99,,2013-02-12 10:52:00,
2013-02-12 06:11:00,36.0,28.0,-100.00,NNE,25,5.0,12.0,71,-99.99,,,-99.99,,2013-02-12 11:11:00,
2013-02-12 06:22:00,36.0,28.0,-100.00,East,95,2.0,7.0,72,-99.99,,,-99.99,,2013-02-12 11:22:00,
2013-02-12 06:32:00,36.0,28.0,-100.00,NE,55,3.0,12.0,72,-99.99,,,-99.99,,2013-02-12 11:32:00,
2013-02-12 07:42:00,36.0,28.0,-100.00,NE,55,3.0,7.0,74,-99.99,,,-99.99,,2013-02-12 12:42:00,
2013-02-12 07:52:00,36.0,28.0,-100.00,NNE,25,2.0,7.0,72,-99.99,,,-99.99,,2013-02-12 12:52:00,
2013-02-12 08:02:00,36.0,28.0,-100.00,North,5,3.0,7.0,71,-99.99,,,-99.99,,2013-02-12 13:02:00,
2013-02-12 08:11:00,37.0,28.0,-100.00,North,0,1.0,8.0,70,-99.99,,,-99.99,,2013-02-12 13:11:00,
2013-02-12 08:22:00,38.0,29.0,-100.00,NNE,20,3.0,7.0,70,-99.99,,,-99.99,,2013-02-12 13:22:00,
2013-02-12 08:32:00,38.0,29.0,-100.00,NNE,15,3.0,8.0,69,-99.99,,,-99.99,,2013-02-12 13:32:00,
2013-02-12 08:42:00,38.0,29.0,-100.00,North,5,2.0,7.0,68,-99.99,,,-99.99,,2013-02-12 13:42:00,
2013-02-12 08:52:00,38.0,29.0,-100.00,NNW,335,2.0,5.0,68,-99.99,,,-99.99,,2013-02-12 13:52:00,
2013-02-12 09:01:00,39.0,29.0,-100.00,NNE,15,3.0,6.0,67,-99.99,,,-99.99,,2013-02-12 14:01:00,
2013-02-12 09:12:00,39.0,29.0,-100.00,North,355,1.0,6.0,67,-99.99,,,-99.99,,2013-02-12 14:12:00,
2013-02-12 09:22:00,39.0,29.0,-100.00,WNW,295,2.0,6.0,66,-99.99,,,-99.99,,2013-02-12 14:22:00,
2013-02-12 09:32:00,39.0,29.0,-100.00,WNW,295,5.0,7.0,66,-99.99,,,-99.99,,2013-02-12 14:32:00,
2013-02-12 09:42:00,40.0,29.0,-100.00,NW,320,2.0,8.0,65,-99.99,,,-99.99,,2013-02-12 14:42:00,
2013-02-12 09:52:00,41.0,29.0,-100.00,NNE,20,5.0,12.0,61,-99.99,,,-99.99,,2013-02-12 14:52:00,
2013-02-12 10:02:00,41.0,28.0,-100.00,NE,55,7.0,14.0,59,-99.99,,,-99.99,,2013-02-12 15:02:00,
2013-02-12 10:11:00,41.0,28.0,-100.00,NE,55,7.0,14.0,59,-99.99,,,-99.99,,2013-02-12 15:11:00,
2013-02-12 10:21:00,42.0,28.0,-100.00,North,0,3.0,14.0,56,-99.99,,,-99.99,,2013-02-12 15:21:00,
2013-02-12 10:32:00,43.0,28.0,-100.00,ENE,60,5.0,13.0,55,-99.99,,,-99.99,,2013-02-12 15:32:00,
2013-02-12 10:42:00,43.0,27.0,-100.00,NE,35,6.0,16.0,54,-99.99,,,-99.99,,2013-02-12 15:42:00,
2013-02-12 14:32:00,45.0,27.0,-100.00,NNE,15,5.0,14.0,49,-99.99,,,-99.99,,2013-02-12 19:32:00,
2013-02-12 14:42:00,45.0,27.0,-100.00,NE,40,9.0,21.0,49,-99.99,,,-99.99,,2013-02-12 19:42:00,
2013-02-12 15:21:00,43.0,27.0,-100.00,ENE,65,8.0,20.0,53,-99.99,,,-99.99,,2013-02-12 20:21:00,
2013-02-12 15:32:00,43.0,27.0,-100.00,ENE,65,8.0,20.0,53,-99.99,,,-99.99,,2013-02-12 20:32:00,
2013-02-12 16:30:00,41.0,27.0,-100.00,North,5,5.0,10.0,57,-99.99,,,-99.99,,2013-02-12 21:30:00,
2013-02-12 17:12:00,41.0,27.0,-100.00,North,5,5.0,10.0,57,-99.99,,,-99.99,,2013-02-12 22:12:00,
2013-02-12 17:21:00,41.0,27.0,-100.00,North,5,5.0,10.0,57,-99.99,,,-99.99,,2013-02-12 22:21:00,
2013-02-12 19:42:00,38.0,27.0,-100.00,NNE,30,3.0,10.0,64,-99.99,,,-99.99,,2013-02-13 00:42:00,
2013-02-12 19:52:00,39.0,27.0,-100.00,NNE,20,3.0,9.0,63,-99.99,,,-99.99,,2013-02-13 00:52:00,
2013-02-12 20:01:00,39.0,27.0,-100.00,North,10,5.0,10.0,62,-99.99,,,-99.99,,2013-02-13 01:01:00,
2013-02-12 20:11:00,39.0,27.0,-100.00,NE,35,6.0,15.0,62,-99.99,,,-99.99,,2013-02-13 01:11:00,
2013-02-12 20:21:00,39.0,27.0,-100.00,North,10,6.0,13.0,62,-99.99,,,-99.99,,2013-02-13 01:21:00,
2013-02-12 20:32:00,39.0,27.0,-100.00,NE,45,5.0,13.0,62,-99.99,,,-99.99,,2013-02-13 01:32:00,
2013-02-12 20:42:00,39.0,27.0,-100.00,North,5,6.0,16.0,62,-99.99,,,-99.99,,2013-02-13 01:42:00,
2013-02-12 20:52:00,39.0,27.0,-100.00,NNE,15,5.0,10.0,62,-99.99,,,-99.99,,2013-02-13 01:52:00,
2013-02-12 21:01:00,38.0,27.0,-100.00,North,10,7.0,12.0,64,-99.99,,,-99.99,,2013-02-13 02:01:00,
2013-02-12 21:11:00,38.0,27.0,-100.00,North,5,5.0,15.0,63,-99.99,,,-99.99,,2013-02-13 02:11:00,
2013-02-12 21:22:00,38.0,27.0,-100.00,North,10,5.0,15.0,63,-99.99,,,-99.99,,2013-02-13 02:22:00,
2013-02-12 21:32:00,38.0,27.0,-100.00,North,0,5.0,13.0,63,-99.99,,,-99.99,,2013-02-13 02:32:00,
2013-02-12 21:42:00,38.0,27.0,-100.00,ESE,110,3.0,14.0,64,-99.99,,,-99.99,,2013-02-13 02:42:00,
2013-02-12 21:52:00,38.0,27.0,-100.00,NNE,20,3.0,13.0,64,-99.99,,,-99.99,,2013-02-13 02:52:00,
2013-02-12 22:02:00,37.0,26.0,-100.00,NNW,335,2.0,6.0,65,-99.99,,,-99.99,,2013-02-13 03:02:00,
2013-02-12 22:12:00,37.0,26.0,-100.00,NNW,335,2.0,6.0,65,-99.99,,,-99.99,,2013-02-13 03:12:00,
2013-02-12 22:21:00,37.0,26.0,-100.00,NE,40,2.0,8.0,66,-99.99,,,-99.99,,2013-02-13 03:21:00,
2013-02-12 22:32:00,36.0,26.0,-100.00,North,350,2.0,8.0,67,-99.99,,,-99.99,,2013-02-13 03:32:00,
2013-02-12 22:42:00,36.0,26.0,-100.00,East,90,0.0,7.0,67,-99.99,,,-99.99,,2013-02-13 03:42:00,
2013-02-12 22:51:00,36.0,26.0,-100.00,NE,50,1.0,5.0,68,-99.99,,,-99.99,,2013-02-13 03:51:00,
2013-02-12 23:01:00,36.0,26.0,-100.00,NE,50,1.0,5.0,68,-99.99,,,-99.99,,2013-02-13 04:01:00,
2013-02-12 23:11:00,34.0,26.0,-100.00,East,90,1.0,3.0,71,-99.99,,,-99.99,,2013-02-13 04:11:00,
2013-02-12 23:21:00,34.0,26.0,-100.00,East,90,1.0,3.0,71,-99.99,,,-99.99,,2013-02-13 04:21:00,
2013-02-12 23:32:00,33.0,25.0,-100.00,WNW,300,1.0,2.0,73,-99.99,,,-99.99,,2013-02-13 04:32:00,
2013-02-12 23:42:00,32.0,25.0,-100.00,West,260,1.0,2.0,75,-99.99,,,-99.99,,2013-02-13 04:42:00,
2013-02-12 23:51:00,31.0,24.0,-100.00,NW,320,0.0,1.0,76,-99.99,,,-99.99,,2013-02-13 04:51:00,